Weather reports worldwide

Advertisment
Alsancak, Cyprus (17572): temperature & dewpoint: 18.05.2018 14:00:00 - 24.05.2018 14:00:00 (EEST)Alsancak, Cyprus (17572): wind speed: 18.05.2018 14:00:00 - 24.05.2018 14:00:00 (EEST)Alsancak, Cyprus (17572): wind direction: 18.05.2018 14:00:00 - 24.05.2018 14:00:00 (EEST)Alsancak, Cyprus (17572): reduced air pressure: 18.05.2018 14:00:00 - 24.05.2018 14:00:00 (EEST)Alsancak, Cyprus (17572): visibility: 18.05.2018 14:00:00 - 24.05.2018 14:00:00 (EEST)
Date & Time tt [°C] td [°C] ff [km/h] ff [kn] dd ppp [hPa] vv [km]
24.05.2018 14:00:00 26,0 21,0 15 8 ENE 1012,2 10
24.05.2018 13:00:00 25,9 21,1 8 4 NE 1012,7 10
24.05.2018 12:00:00 26,2 21,6 9 5 E 1012,9 10
24.05.2018 11:00:00 25,7 21,7 16 9 E 1013,0 10
24.05.2018 10:00:00 25,6 21,4 11 6 E 1013,0 10
24.05.2018 09:00:00 25,4 20,6 16 9 ENE 1013,2 10
24.05.2018 08:00:00 25,3 17,1 11 6 E 1013,0 10
24.05.2018 07:00:00 25,0 15,8 11 6 E 1012,9 10
24.05.2018 06:00:00 24,5 13,6 15 8 NW 1012,4 10
24.05.2018 05:00:00 - - - - - - -
24.05.2018 04:00:00 - - - - - - -
24.05.2018 03:00:00 27,6 11,0 29 16 W 1012,0 10
24.05.2018 02:00:00 - - - - - - -
24.05.2018 01:00:00 - - - - - - -
24.05.2018 00:00:00 27,4 11,5 29 16 W 1013,6 10
23.05.2018 23:00:00 26,3 14,6 34 18 W 1013,6 10
23.05.2018 22:00:00 26,6 13,4 37 20 W 1013,1 10
23.05.2018 21:00:00 - - - - - - -
23.05.2018 20:00:00 26,3 18,1 15 8 W 1013,1 10
23.05.2018 19:00:00 25,8 18,0 22 12 WNW 1012,8 10
23.05.2018 18:00:00 26,0 18,1 8 4 NW 1013,0 10
23.05.2018 17:00:00 25,7 21,8 34 18 WNW 1013,4 10
23.05.2018 16:00:00 25,5 21,1 29 16 WNW 1013,6 4,8
23.05.2018 15:00:00 28,0 20,7 21 11 WNW 1013,7 8
23.05.2018 14:00:00 25,8 20,6 15 8 W 1014,5 8
23.05.2018 13:00:00 25,6 19,9 15 8 WNW 1014,6 8
23.05.2018 12:00:00 25,4 20,7 11 6 NW 1014,7 8
23.05.2018 11:00:00 25,0 20,0 18 10 WNW 1014,3 8
23.05.2018 10:00:00 25,1 19,8 21 11 WNW 1014,3 8
23.05.2018 09:00:00 25,1 18,8 11 6 WNW 1014,5 8
23.05.2018 08:00:00 24,9 17,3 0 0 N 1013,4 8
23.05.2018 07:00:00 23,4 15,3 0 0 N 1013,3 8
23.05.2018 06:00:00 22,0 13,1 0 0 N 1013,3 8
23.05.2018 05:00:00 - - - - - - -
23.05.2018 04:00:00 - - - - - - -
23.05.2018 03:00:00 24,4 8,0 0 0 N 1013,6 8
23.05.2018 02:00:00 - - - - - - -
23.05.2018 01:00:00 - - - - - - -
23.05.2018 00:00:00 25,4 8,0 0 0 N 1013,6 8
22.05.2018 23:00:00 - - - - - - -
22.05.2018 22:00:00 25,2 14,0 0 0 N 1013,6 8
22.05.2018 21:00:00 26,3 11,9 0 0 N 1013,1 8
22.05.2018 20:00:00 27,6 14,2 0 0 N 1013,6 8
22.05.2018 19:00:00 29,0 13,2 0 0 N 1013,6 8
22.05.2018 18:00:00 29,0 15,3 0 0 N 1013,4 8
22.05.2018 17:00:00 28,4 17,7 15 8 NNW 1014,2 8
22.05.2018 16:00:00 28,0 17,9 15 8 NNW 1013,9 8
22.05.2018 15:00:00 31,0 11,7 15 8 SSW 1013,9 8
22.05.2018 14:00:00 33,0 11,7 15 8 SSW 1013,9 8
22.05.2018 13:00:00 32,7 11,7 15 8 SSW 1013,9 8
22.05.2018 12:00:00 31,2 10,0 0 0 N 1014,7 8
22.05.2018 11:00:00 27,2 20,8 29 16 NNE 1014,0 8
22.05.2018 10:00:00 29,7 12,6 0 0 N 1014,2 8
22.05.2018 09:00:00 25,0 21,6 11 6 E 1015,3 8
22.05.2018 08:00:00 25,0 21,1 13 7 E 1015,1 9
22.05.2018 07:00:00 24,7 19,5 0 0 N 1014,7 9
22.05.2018 06:00:00 24,0 18,0 0 0 N 1013,2 10
22.05.2018 05:00:00 - - - - - - -
22.05.2018 04:00:00 24,3 15,9 5 3 S 1013,0 10
22.05.2018 03:00:00 24,0 13,7 0 0 N 1013,5 10
22.05.2018 02:00:00 23,7 14,2 0 0 N 1013,7 10
22.05.2018 01:00:00 24,3 17,2 0 0 N 1014,7 10
22.05.2018 00:00:00 24,5 17,8 0 0 N 1014,8 10
21.05.2018 23:00:00 24,5 18,7 5 3 SW 1014,7 10
21.05.2018 22:00:00 24,7 18,7 5 3 SE 1014,3 10
21.05.2018 21:00:00 25,4 20,5 8 4 WSW 1013,3 10
21.05.2018 20:00:00 26,3 20,7 0 0 N 1012,9 10
21.05.2018 19:00:00 26,7 20,6 8 4 NE 1012,6 10
21.05.2018 18:00:00 26,5 19,8 8 4 ENE 1012,9 10
21.05.2018 17:00:00 26,8 19,7 0 0 N 1012,5 10
21.05.2018 16:00:00 26,5 19,1 5 3 N 1012,4 10
21.05.2018 15:00:00 26,2 19,4 8 4 NNE 1013,0 10
21.05.2018 14:00:00 26,6 20,0 11 6 NE 1013,0 10
21.05.2018 13:00:00 26,0 18,5 15 8 ENE 1013,3 10
21.05.2018 12:00:00 25,9 18,6 15 8 NW 1014,1 10
21.05.2018 11:00:00 26,3 18,6 11 6 NW 1013,9 10
21.05.2018 10:00:00 26,5 18,3 11 6 ENE 1013,5 10
21.05.2018 09:00:00 26,4 17,9 11 6 E 1013,4 10
21.05.2018 08:00:00 - - - - - - -
21.05.2018 07:00:00 - - - - - - -
21.05.2018 06:00:00 - - - - - - -
21.05.2018 05:00:00 - - - - - - -
21.05.2018 04:00:00 - - - - - - -
21.05.2018 03:00:00 - - - - - - -
21.05.2018 02:00:00 - - - - - - -
21.05.2018 01:00:00 27,4 8,2 11 6 W 1011,3 10
21.05.2018 00:00:00 27,7 10,3 11 6 W 1011,6 10
20.05.2018 23:00:00 27,4 12,0 9 5 WSW 1011,4 10
20.05.2018 22:00:00 29,4 10,1 15 8 NNW 1011,0 10
20.05.2018 21:00:00 27,2 12,7 9 5 WSW 1010,5 10
20.05.2018 20:00:00 26,6 17,3 16 9 W 1010,5 10
20.05.2018 19:00:00 28,6 17,8 18 10 WNW 1010,0 10
20.05.2018 18:00:00 28,1 17,7 21 11 WNW 1009,8 10
20.05.2018 17:00:00 28,0 19,6 9 5 WNW 1010,0 10
20.05.2018 16:00:00 27,1 20,3 5 3 NNW 1010,5 10
20.05.2018 15:00:00 25,6 21,2 16 9 NW 1010,9 10
20.05.2018 14:00:00 25,8 21,5 16 9 NW 1011,3 10
20.05.2018 13:00:00 25,8 21,4 21 11 WNW 1012,1 10
20.05.2018 12:00:00 26,0 19,8 15 8 NW 1012,3 10
20.05.2018 11:00:00 26,2 18,2 13 7 NNW 1012,3 10
20.05.2018 10:00:00 27,9 17,1 8 4 ENE 1012,0 10
20.05.2018 09:00:00 26,2 18,0 0 0 N 1011,7 10
20.05.2018 08:00:00 29,1 10,1 11 6 WSW 1011,3 10
20.05.2018 07:00:00 27,2 9,2 8 4 SW 1011,0 10
20.05.2018 06:00:00 27,2 8,7 11 6 SW 1010,6 10
20.05.2018 05:00:00 - - - - - - -
20.05.2018 04:00:00 - - - - - - -
20.05.2018 03:00:00 27,0 10,4 11 6 WSW 1011,7 10
20.05.2018 02:00:00 - - - - - - -
20.05.2018 01:00:00 - - - - - - -
20.05.2018 00:00:00 27,0 10,4 11 6 WSW 1011,7 10
19.05.2018 23:00:00 26,9 11,3 11 6 W 1011,8 10
19.05.2018 22:00:00 29,6 1,5 11 6 SW 1011,0 10
19.05.2018 21:00:00 29,9 3,9 8 4 SSW 1010,6 10
19.05.2018 20:00:00 30,4 3,2 8 4 WSW 1010,0 10
19.05.2018 19:00:00 30,3 11,6 8 4 WSW 1011,0 10
19.05.2018 18:00:00 29,2 13,7 8 4 W 1011,1 10
19.05.2018 17:00:00 28,2 15,5 21 11 WNW 1011,4 10
19.05.2018 16:00:00 26,9 20,5 21 11 WNW 1011,8 10
19.05.2018 15:00:00 26,8 18,1 22 12 W 1012,2 10
19.05.2018 14:00:00 27,4 17,3 8 4 N 1012,5 10
19.05.2018 13:00:00 28,0 17,2 0 0 N 1012,4 10
19.05.2018 12:00:00 26,7 16,5 9 5 NNE 1012,5 10
19.05.2018 11:00:00 27,4 14,8 5 3 E 1012,8 10
19.05.2018 10:00:00 27,7 15,4 0 0 N 1012,4 10
19.05.2018 09:00:00 29,3 10,8 0 0 N 1012,0 10
19.05.2018 08:00:00 26,1 11,2 0 0 N 1012,0 10
19.05.2018 07:00:00 23,6 7,1 0 0 N 1012,0 10
19.05.2018 06:00:00 21,0 11,3 0 0 N 1011,7 10
19.05.2018 05:00:00 - - - - - - -
19.05.2018 04:00:00 - - - - - - -
19.05.2018 03:00:00 22,0 11,3 0 0 N 1011,7 10
19.05.2018 02:00:00 - - - - - - -
19.05.2018 01:00:00 - - - - - - -
19.05.2018 00:00:00 - - - - - - -
18.05.2018 23:00:00 - - - - - - -
18.05.2018 22:00:00 25,0 16,3 0 0 N 1012,7 10
18.05.2018 21:00:00 25,2 17,8 0 0 N 1011,9 10
18.05.2018 20:00:00 26,7 15,3 0 0 N 1011,9 10
18.05.2018 19:00:00 - - - - - - -
18.05.2018 18:00:00 26,7 17,1 0 0 N 1011,9 10
18.05.2018 17:00:00 - - - - - - -
18.05.2018 16:00:00 - - - - - - -
18.05.2018 15:00:00 26,6 18,2 0 0 N 1013,8 10
18.05.2018 14:00:00 - - - - - - -

tt = temperature
td = dewpoint
ff = wind speed
dd = wind direction
ppp = reduced air pressure
vv = visibility

Next stations